Powrót do katalogu

FENGYUN 1C DEB

AktywnyPO
NORAD 31169·DEBRIS·🇨🇳 China

Wystrzelony May 10, 1999 z Taiyuan Satellite Launch Center

Loading…

Następne Przeloty (najbliższe 24 godziny)

TLE

ŚwieżeSource: Space-Track

Epoka: Sep 14, 2026, 13:27 UTC

1 31169U 99025BHX 26257.56041978  .00002543  00000-0  10135-2 0  9993
2 31169  99.1386 301.7783 0054740 303.0020  56.5906 14.28710086610404

Śledź FENGYUN 1C DEB w czasie rzeczywistym z AllMySat

Download on the App Store